Tracking 23726 objects as of 24-Sep-2021
HD Live streaming from Space Station
objects crossing your sky now

STARLINK-2015

Track STARLINK-2015 now!
10-day predictions
STARLINK-2015 is classified as:


NORAD ID: 47638
Int'l Code: 2021-012U
Perigee: 388.7 km
Apogee: 390.8 km
Inclination: 53.0 °
Period: 92.2 minutes
Semi major axis: 6760 km
RCS: Unknown
Launch date: February 16, 2021
Source: United States (US)
Launch site: AIR FORCE EASTERN TEST RANGE (AFETR)
aabbcc
Your satellite tracking list
Your tracking list is empty




NASA's NSSDC Master Catalog

Two Line Element Set (TLE):
1 47638U 21012U   21267.00002315 -.00951739  00000-0 -11929-1 0  9992
2 47638  53.0400  88.9267 0001556  47.0427 139.3486 15.61747259  3726
Source of the keplerian elements: AFSPC